Location: Colonia Mina de C?rbuni
(46.1667°N, 22.7167°E)
Time: 05:55:05
(UTC+00:00)

CSL-04 Rocket - Visible Passes

Search period start: 30 September 2023 00:00
Search period end: 10 October 2023 00:00
Orbit: 805 x 860 km, 98.8° (Epoch: 29 September)

Date Brightness Start Highest point End Pass type
(mag) Time Alt. Az. Time Alt. Az. Time Alt. Az.
30 Sep 4.1 17:34:09 21° ESE 17:37:03 38° ENE 17:41:56 10° N visible
30 Sep 5.1 19:15:47 27° SW 19:17:25 32° W 19:22:10 10° NNW visible
01 Oct 4.5 17:16:59 16° ESE 17:20:04 28° ENE 17:24:32 10° N visible
01 Oct 4.5 18:58:36 35° SW 19:00:11 44° W 19:05:17 10° NNW visible
02 Oct 4.9 16:59:48 12° ESE 17:03:07 21° ENE 17:07:02 10° NNE visible
02 Oct 3.9 18:41:26 43° SSW 18:42:59 63° WSW 18:48:17 10° NNW visible
03 Oct 5.2 16:43:08 10° E 16:46:13 16° NE 16:49:21 10° NNE visible
03 Oct 3.5 18:24:15 47° SSE 18:25:50 87° WSW 18:31:12 10° NNW visible
03 Oct 6.2 20:05:53 11° W 20:06:58 12° W 20:08:59 10° WNW visible
04 Oct 5.5 16:27:32 10° ENE 16:29:23 12° NE 16:31:14 10° NNE visible
04 Oct 3.5 18:07:04 44° SE 18:08:43 69° ENE 18:14:02 10° N visible
04 Oct 5.9 19:48:42 17° WSW 19:49:35 17° W 19:53:03 10° NW visible
05 Oct 3.8 17:49:53 35° ESE 17:51:39 50° ENE 17:56:48 10° N visible
05 Oct 5.5 19:31:31 24° WSW 19:32:15 24° W 19:36:33 10° NW visible
06 Oct 4.2 17:32:43 27° ESE 17:34:38 36° ENE 17:39:30 10° N visible
06 Oct 4.9 19:14:20 33° WSW 19:14:58 34° W 19:19:48 10° NNW visible
07 Oct 4.6 17:15:32 21° E 17:17:39 27° ENE 17:22:06 10° N visible
07 Oct 4.4 18:57:09 45° WSW 18:57:44 47° W 19:02:54 10° NNW visible
08 Oct 4.9 16:58:21 15° E 17:00:43 20° ENE 17:04:34 10° NNE visible
08 Oct 3.8 18:39:58 61° SW 18:40:32 66° WSW 18:45:53 10° NNW visible
09 Oct 5.2 16:41:09 11° E 16:43:50 15° NE 16:46:51 10° NNE visible
09 Oct 3.5 18:22:47 71° SSE 18:23:23 90° ENE 18:28:47 10° NNW visible
09 Oct 6.2 20:04:25 13° W 20:04:29 13° W 20:06:51 10° WNW visible
